This is the latest recevied weather packets stored in our database for station/object N8BAP. If no packets are shown the sender has not sent any weather packets the latest 10 day(s).
| Time | Temp. | Humidity | Pressure | Rain* | Wind** | Luminosity | Snow |
|---|---|---|---|---|---|---|---|
| 1787845399 | 26.11° C | 74% | 1021 hPa | 0 mm | - | 717 W/m² | - |
| 1787845095 | 26.11° C | 73% | 1020.9 hPa | 0 mm | - | 705 W/m² | - |
| 1787844791 | 26.11° C | 75% | 1021.1 hPa | 0 mm | - | 676 W/m² | - |
| 1787844490 | 26.11° C | 74% | 1020.8 hPa | 0 mm | - | 677 W/m² | - |
| 1787844193 | 26.11° C | 75% | 1020.8 hPa | 0 mm | - | 671 W/m² | - |
| 1787843884 | 26.11° C | 75% | 1020.9 hPa | 0 mm | - | 686 W/m² | - |
| 1787843579 | 25.56° C | 78% | 1020.8 hPa | 0 mm | - | 633 W/m² | - |
| 1787843275 | 25.56° C | 76% | 1020.6 hPa | 0 mm | - | 554 W/m² | - |
| 1787842971 | 25.56° C | 76% | 1020.8 hPa | 0 mm | - | 556 W/m² | - |
| 1787842670 | 25.56° C | 76% | 1020.5 hPa | 0 mm | - | 580 W/m² | - |
| 1787842366 | 25° C | 78% | 1020.5 hPa | 0 mm | - | 484 W/m² | - |
| 1787842060 | 25° C | 78% | 1020.6 hPa | 0 mm | - | 439 W/m² | - |
| 1787841756 | 25° C | 78% | 1020.6 hPa | 0 mm | - | 466 W/m² | - |
| 1787841452 | 25° C | 77% | 1020.4 hPa | 0 mm | - | 531 W/m² | - |
| 1787841150 | 25° C | 79% | 1020.5 hPa | 0 mm | - | 533 W/m² | - |
| 1787840846 | 24.44° C | 80% | 1020.5 hPa | 0 mm | - | 513 W/m² | - |
| 1787840541 | 24.44° C | 80% | 1020.6 hPa | 0 mm | - | 488 W/m² | - |
| 1787840236 | 24.44° C | 79% | 1020.5 hPa | 0 mm | - | 462 W/m² | - |
| 1787839935 | 23.89° C | 80% | 1020.7 hPa | 0 mm | - | 460 W/m² | - |
| 1787839631 | 23.89° C | 81% | 1020.3 hPa | 0 mm | - | 431 W/m² | - |
| 1787839325 | 23.33° C | 85% | 1020.5 hPa | 0 mm | - | 409 W/m² | - |
| 1787839025 | 23.33° C | 82% | 1020.7 hPa | 0 mm | - | 371 W/m² | - |
| 1787838724 | 22.78° C | 85% | 1020.6 hPa | 0 mm | - | 355 W/m² | - |
| 1787838423 | 22.78° C | 85% | 1020.6 hPa | 0 mm | - | 335 W/m² | - |
| 1787838122 | 22.22° C | 86% | 1020.7 hPa | 0 mm | - | 311 W/m² | - |
* Rain latest hour (hover to see other rain measurements)
** Current wind speed in m/s (hover to see current wind gust speed)